Back to catalog

STARLINK-5969

AliveCommunicationsVLEO
NORAD 55993·PAYLOAD·🇺🇸 United States

Launched Mar 24, 2023 from Cape Canaveral Space Force Station

Loading…

Next Passes (next 24 hours)

TLE

FreshSource: CelesTrak SupGP

Epoch: Sep 15, 2026, 03:08 UTC

1 55993C 23042H   26258.13104167 -.00055194  00000+0 -19988-2 0  2588
2 55993  43.0040  69.6547 0001883 271.0772  71.0162 15.27610388    16

Track STARLINK-5969 in real time with AllMySat

Download on the App Store